Ora Direzione Vento Velocita' Vento Media Vento Raffica Max. Temperatura Wind Chill Pioggia Pressione
00:17:43.0209 °(SSW)2.6 Kts2.03 Kts5.5 Kts10.1 °C7.1 °C0.0 mm1022.4 Hpa
23:57:42.0209 °(SSW)1.43 Kts2.03 Kts5.5 Kts10.1 °C7.1 °C0.0 mm1022.4 Hpa
23:35:41.0221 °(SW)2.03 Kts1.73 Kts5.5 Kts10.7 °C8.7 °C0.0 mm1022.5 Hpa
23:16:02.0235 °(SW)1.73 Kts1.17 Kts5.5 Kts10.7 °C10.7 °C0.0 mm1022.5 Hpa
22:55:57.0236 °(SW)0 Kts1.43 Kts5.5 Kts10.9 °C9.7 °C0.0 mm1022.4 Hpa
22:36:14.0236 °(SW)0 Kts0 Kts5.5 Kts10.9 °C10.9 °C0.0 mm1022.2 Hpa
22:16:17.0236 °(SW)0 Kts0.3 Kts5.5 Kts10.9 °C10.9 °C0.0 mm1022.4 Hpa
21:56:17.0236 °(SW)0 Kts1.17 Kts5.5 Kts11.2 °C11.2 °C0.0 mm1022.5 Hpa
21:36:39.0236 °(SW)0 Kts0 Kts5.5 Kts11.6 °C11.6 °C0.0 mm1022.4 Hpa
21:16:54.0236 °(SW)0 Kts0 Kts5.5 Kts11.6 °C11.6 °C0.0 mm1022.4 Hpa
20:56:59.0236 °(SW)0 Kts0 Kts5.5 Kts11.6 °C11.6 °C0.0 mm1022.4 Hpa
20:37:20.0236 °(SW)0 Kts0 Kts5.5 Kts11.7 °C11.7 °C0.0 mm1022.2 Hpa
20:17:40.0235 °(SW)0 Kts0 Kts5.5 Kts11.6 °C11.6 °C0.0 mm1022.3 Hpa
19:53:31.0236 °(SW)0 Kts0 Kts5.5 Kts12.0 °C12.0 °C0.0 mm1022.3 Hpa
19:35:59.0236 °(SW)0 Kts0 Kts5.5 Kts12.2 °C12.2 °C0.0 mm1022.2 Hpa
19:16:03.0237 °(WSW)0 Kts0 Kts5.5 Kts12.5 °C12.5 °C0.0 mm1022.0 Hpa
18:56:21.0237 °(WSW)0 Kts0 Kts5.5 Kts12.8 °C12.8 °C0.0 mm1022.0 Hpa
18:36:32.0237 °(WSW)0 Kts0 Kts5.5 Kts13.2 °C13.2 °C0.0 mm1022.0 Hpa
18:16:59.0237 °(WSW)0 Kts0 Kts5.5 Kts14.2 °C14.2 °C0.0 mm1022.0 Hpa
17:56:57.0237 °(WSW)0 Kts0.87 Kts5.5 Kts15.3 °C15.3 °C0.0 mm1022.0 Hpa